| time (UTC) | temp C | wind direction | speed KPH | gust KPH | rain 1hr cm | rain 24hr cm | rain mn cm | humidity % | barometer mb |
| 20260506131535 | 7 | 53 | 1.6 | 3.2 | 0.00 | 1.12 | 1.12 | 57 | 952.3 |
| 20260506130515 | 7 | 43 | 3.2 | 8.0 | 0.00 | 1.12 | 1.12 | 57 | 952.3 |
| 20260506125515 | 7 | 54 | 6.4 | 9.7 | 0.00 | 1.12 | 1.12 | 57 | 952.3 |
| 20260506124536 | 6 | 340 | 3.2 | 6.4 | 0.00 | 1.12 | 1.12 | 58 | 952.4 |
| 20260506123515 | 6 | 11 | 8.0 | 14.5 | 0.00 | 1.12 | 1.12 | 61 | 952.5 |
| 20260506122515 | 6 | 342 | 9.7 | 16.1 | 0.00 | 1.12 | 1.12 | 61 | 952.6 |
| 20260506121515 | 6 | 324 | 8.0 | 9.7 | 0.00 | 1.12 | 1.12 | 60 | 952.6 |
| 20260506120535 | 7 | 306 | 3.2 | 6.4 | 0.61 | 1.12 | 1.12 | 58 | 952.6 |
| 20260506115515 | 7 | 338 | 4.8 | 9.7 | 0.61 | 1.12 | 1.12 | 56 | 952.6 |
| 20260506114516 | 7 | 348 | 1.6 | 27.4 | 0.61 | 1.12 | 1.12 | 52 | 952.7 |
| 20260506113516 | 6 | 348 | 4.8 | 9.7 | 0.61 | 1.12 | 1.12 | 57 | 952.7 |
| 20260506112515 | 7 | 352 | 4.8 | 11.3 | 0.61 | 1.12 | 1.12 | 56 | 952.7 |
| 20260506111516 | 8 | 352 | 1.6 | 8.0 | 0.61 | 1.12 | 1.12 | 51 | 952.7 |
| 20260506110516 | 7 | 344 | 1.6 | 6.4 | 0.00 | 0.51 | 0.51 | 58 | 952.7 |
| 20260506105515 | 6 | 50 | 3.2 | 9.7 | 0.00 | 0.51 | 0.51 | 62 | 952.7 |
| 20260506104515 | 6 | 326 | 8.0 | 11.3 | 0.00 | 1.12 | 0.51 | 65 | 952.7 |
| 20260506103515 | 6 | 354 | 8.0 | 14.5 | 0.00 | 1.12 | 0.51 | 65 | 952.7 |
| 20260506102515 | 6 | 341 | 6.4 | 11.3 | 0.00 | 1.12 | 0.51 | 63 | 952.8 |
| 20260506101515 | 6 | 354 | 3.2 | 6.4 | 0.00 | 1.12 | 0.51 | 61 | 952.8 |
| 20260506100535 | 6 | 9 | 3.2 | 11.3 | 0.00 | 1.12 | 0.51 | 60 | 952.8 |
| 20260506095515 | 7 | 22 | 4.8 | 12.9 | 0.00 | 1.12 | 0.51 | 54 | 952.7 |
| 20260506094515 | 6 | 47 | 1.6 | 6.4 | 0.00 | 1.12 | 0.51 | 65 | 952.8 |
| 20260506093515 | 5 | 336 | 9.7 | 16.1 | 0.00 | 1.70 | 0.51 | 64 | 952.7 |
| 20260506092535 | 6 | 17 | 4.8 | 9.7 | 0.00 | 1.70 | 0.51 | 57 | 952.6 |
| 20260506091515 | 6 | 7 | 9.7 | 19.3 | 0.00 | 1.70 | 0.51 | 63 | 952.6 |
| 20260506090515 | 6 | 71 | 9.7 | 16.1 | 0.00 | 1.70 | 0.51 | 59 | 952.6 |
| 20260506085515 | 6 | 62 | 9.7 | 19.3 | 0.00 | 1.70 | 0.51 | 61 | 952.5 |
| 20260506084515 | 7 | 66 | 4.8 | 16.1 | 0.00 | 1.70 | 0.51 | 54 | 952.4 |
| 20260506083515 | 6 | 62 | 9.7 | 20.9 | 0.00 | 1.70 | 0.51 | 56 | 952.3 |
| 20260506082515 | 6 | 62 | 6.4 | 14.5 | 0.00 | 1.70 | 0.51 | 58 | 952.3 |
| 20260506081514 | 6 | 6 | 3.2 | 8.0 | 0.00 | 1.70 | 0.51 | 56 | 952.2 |
| 20260506080535 | 5 | 359 | 4.8 | 9.7 | 0.00 | 1.70 | 0.51 | 59 | 952.2 |
| 20260506073515 | 7 | 20 | 4.8 | 11.3 | 0.00 | 8.20 | 0.51 | 52 | 952.1 |
| 20260506072515 | 7 | 199 | 4.8 | 8.0 | 0.00 | 8.20 | 0.51 | 49 | 952.1 |
| 20260506071515 | 6 | 235 | 3.2 | 9.7 | 0.00 | 8.20 | 0.51 | 50 | 952.1 |
| 20260506070516 | 6 | 333 | 1.6 | 9.7 | 0.00 | 8.20 | 0.51 | 54 | 952.1 |
| 20260506062515 | 6 | 230 | 4.8 | 9.7 | 0.00 | 8.20 | 0.51 | 48 | 952.1 |
| 20260506061516 | 7 | 285 | 1.6 | 4.8 | 0.00 | 8.20 | 0.51 | 45 | 952.1 |
| 20260506060515 | 7 | 243 | 1.6 | 3.2 | 0.00 | 8.20 | 0.51 | 46 | 952.1 |
| 20260506050515 | 5 | 312 | 3.2 | 4.8 | 0.00 | 8.20 | 0.51 | 55 | 951.8 |
| 20260506044515 | 4 | 281 | 4.8 | 8.0 | 0.00 | 8.20 | 0.51 | 57 | 951.6 |
| 20260506043515 | 4 | 244 | 4.8 | 6.4 | 0.00 | 8.20 | 0.51 | 57 | 951.6 |
| 20260506042515 | 4 | 318 | 4.8 | 6.4 | 0.00 | 8.20 | 0.51 | 56 | 951.5 |
| 20260506041515 | 4 | 356 | 3.2 | 6.4 | 0.00 | 8.20 | 0.51 | 56 | 951.4 |
| 20260506040515 | 4 | 304 | 3.2 | 4.8 | 0.00 | 8.20 | 0.51 | 59 | 951.4 |
| 20260506035515 | 3 | 283 | 4.8 | 6.4 | 0.00 | 8.20 | 0.51 | 60 | 951.3 |
| 20260506034515 | 3 | 277 | 4.8 | 9.7 | 0.00 | 8.20 | 0.51 | 61 | 951.2 |
| 20260506033516 | 3 | 276 | 4.8 | 8.0 | 0.00 | 8.20 | 0.51 | 62 | 951.2 |
| 20260506032515 | 3 | 280 | 9.7 | 11.3 | 0.00 | 8.20 | 0.51 | 62 | 951.1 |
| 20260506031515 | 3 | 287 | 12.9 | 16.1 | 0.00 | 8.20 | 0.51 | 62 | 951.1 |
| 20260506030515 | 3 | 288 | 14.5 | 17.7 | 0.00 | 8.20 | 0.51 | 62 | 951.1 |
| 20260506025515 | 3 | 291 | 14.5 | 17.7 | 0.00 | 8.20 | 0.51 | 62 | 951.1 |
| 20260506024514 | 3 | 290 | 14.5 | 17.7 | 0.00 | 8.20 | 0.51 | 62 | 951.1 |
| 20260506023515 | 3 | 300 | 14.5 | 17.7 | 0.00 | 8.20 | 0.51 | 61 | 951.1 |
| 20260506022514 | 3 | 306 | 14.5 | 17.7 | 0.00 | 8.74 | 0.51 | 61 | 951.1 |
| 20260506021515 | 3 | 297 | 16.1 | 19.3 | 0.00 | 8.74 | 0.51 | 60 | 951.1 |
| 20260506020515 | 3 | 301 | 14.5 | 17.7 | 0.00 | 8.74 | 0.51 | 60 | 951.1 |
| 20260506015515 | 3 | 305 | 14.5 | 17.7 | 0.00 | 8.74 | 0.51 | 59 | 951.1 |
| 20260506014515 | 3 | 302 | 16.1 | 19.3 | 0.00 | 8.74 | 0.51 | 59 | 951.1 |
| 20260506013515 | 4 | 283 | 14.5 | 17.7 | 0.00 | 8.74 | 0.51 | 59 | 951.1 |
| 20260506012536 | 4 | 288 | 16.1 | 19.3 | 0.00 | 8.74 | 0.51 | 59 | 951.1 |
| 20260506011515 | 4 | 286 | 16.1 | 20.9 | 0.00 | 8.74 | 0.51 | 58 | 951.1 |
| 20260506010536 | 4 | 286 | 16.1 | 19.3 | 0.00 | 8.74 | 0.51 | 58 | 951.1 |
| 20260506005515 | 4 | 287 | 16.1 | 19.3 | 0.00 | 8.74 | 0.51 | 57 | 951.2 |
| 20260506004516 | 4 | 288 | 17.7 | 20.9 | 0.00 | 8.74 | 0.51 | 57 | 951.1 |
| 20260506003515 | 4 | 291 | 16.1 | 19.3 | 0.00 | 8.74 | 0.51 | 57 | 951.2 |
| 20260506002515 | 4 | 300 | 12.9 | 16.1 | 0.00 | 8.74 | 0.51 | 56 | 951.3 |
| 20260506001515 | 4 | 308 | 11.3 | 14.5 | 0.00 | 8.74 | 0.51 | 55 | 951.3 |
| 20260506000515 | 4 | 301 | 9.7 | 12.9 | 0.00 | 8.74 | 0.51 | 55 | 951.4 |
| 20260505235516 | 5 | 302 | 11.3 | 14.5 | 0.00 | 8.74 | 0.51 | 53 | 951.5 |
| 20260505234515 | 5 | 314 | 9.7 | 11.3 | 0.00 | 8.74 | 0.51 | 53 | 951.6 |
| 20260505233515 | 5 | 314 | 11.3 | 14.5 | 0.00 | 8.74 | 0.51 | 52 | 951.6 |
| 20260505232515 | 5 | 304 | 12.9 | 16.1 | 0.00 | 8.74 | 0.51 | 52 | 951.6 |
| 20260505231515 | 5 | 294 | 12.9 | 17.7 | 0.00 | 8.74 | 0.51 | 52 | 951.7 |
| 20260505230535 | 5 | 292 | 12.9 | 16.1 | 0.00 | 8.74 | 0.51 | 51 | 951.7 |
| 20260505225515 | 5 | 296 | 11.3 | 14.5 | 0.00 | 8.74 | 0.51 | 51 | 951.7 |
| 20260505224536 | 5 | 307 | 9.7 | 12.9 | 0.00 | 8.74 | 0.51 | 50 | 951.9 |
| 20260505223515 | 5 | 322 | 9.7 | 11.3 | 0.00 | 8.74 | 0.51 | 50 | 951.9 |
| 20260505222515 | 5 | 309 | 9.7 | 12.9 | 0.51 | 8.74 | 0.51 | 50 | 951.8 |
| 20260505221515 | 5 | 310 | 11.3 | 14.5 | 0.51 | 8.74 | 0.51 | 50 | 951.8 |
| 20260505220535 | 5 | 312 | 12.9 | 16.1 | 0.51 | 8.74 | 0.51 | 50 | 951.9 |
| 20260505215515 | 5 | 302 | 11.3 | 12.9 | 0.51 | 8.74 | 0.51 | 50 | 951.9 |
| 20260505214535 | 5 | 297 | 11.3 | 14.5 | 0.51 | 8.74 | 0.51 | 50 | 952.0 |
| 20260505213515 | 5 | 306 | 11.3 | 14.5 | 0.51 | 8.74 | 0.51 | 50 | 952.1 |
| 20260505212516 | 5 | 292 | 14.5 | 17.7 | 0.00 | 8.26 | 0.00 | 50 | 952.0 |
| 20260505211515 | 5 | 286 | 16.1 | 17.7 | 0.00 | 8.26 | 0.00 | 50 | 951.9 |
| 20260505210515 | 5 | 283 | 17.7 | 20.9 | 0.00 | 8.26 | 0.00 | 50 | 952.0 |
| 20260505205515 | 5 | 280 | 19.3 | 20.9 | 0.00 | 8.26 | 8.26 | 50 | 952.0 |
| 20260505204515 | 5 | 278 | 16.1 | 20.9 | 0.00 | 8.84 | 8.23 | 50 | 952.0 |
| 20260505203515 | 5 | 269 | 12.9 | 17.7 | 0.00 | 8.84 | 8.23 | 51 | 952.0 |
| 20260505202516 | 5 | 271 | 9.7 | 14.5 | 0.00 | 8.84 | 8.23 | 53 | 952.0 |
| 20260505201515 | 5 | 263 | 11.3 | 12.9 | 0.00 | 8.84 | 8.23 | 53 | 952.1 |
| 20260505200515 | 4 | 236 | 4.8 | 6.4 | 0.00 | 8.84 | 8.23 | 56 | 951.9 |
| 20260505195515 | 4 | 168 | 4.8 | 4.8 | 0.00 | 8.84 | 8.23 | 61 | 952.0 |
| 20260505194515 | 4 | 154 | 4.8 | 6.4 | 0.00 | 8.84 | 8.23 | 61 | 952.1 |
| 20260505193515 | 4 | 147 | 6.4 | 8.0 | 0.00 | 8.84 | 8.23 | 62 | 952.0 |
| 20260505192516 | 4 | 137 | 8.0 | 9.7 | 0.00 | 8.84 | 8.23 | 63 | 951.9 |
| 20260505191515 | 4 | 140 | 9.7 | 11.3 | 0.00 | 8.84 | 8.23 | 63 | 951.8 |
| 20260505190515 | 4 | 139 | 9.7 | 12.9 | 0.00 | 8.84 | 8.23 | 62 | 951.8 |
| 20260505185515 | 4 | 143 | 11.3 | 14.5 | 0.00 | 8.84 | 8.23 | 62 | 951.8 |
| 20260505184515 | 4 | 138 | 8.0 | 12.9 | 0.00 | 8.84 | 8.23 | 62 | 951.7 |
| 20260505183515 | 4 | 140 | 8.0 | 12.9 | 0.00 | 15.34 | 8.23 | 62 | 951.6 |
| 20260505182514 | 4 | 142 | 6.4 | 8.0 | 0.00 | 15.34 | 8.23 | 61 | 951.6 |
| 20260505181515 | 4 | 142 | 6.4 | 8.0 | 0.00 | 15.34 | 8.23 | 61 | 951.6 |
| 20260505180516 | 4 | 147 | 8.0 | 11.3 | 0.00 | 15.34 | 8.23 | 59 | 951.4 |
| 20260505175535 | 4 | 146 | 9.7 | 11.3 | 0.00 | 15.34 | 8.23 | 59 | 951.4 |
| 20260505174515 | 4 | 155 | 8.0 | 11.3 | 0.00 | 15.34 | 8.23 | 59 | 951.4 |
| 20260505173516 | 5 | 139 | 8.0 | 12.9 | 0.00 | 15.34 | 8.23 | 57 | 951.4 |
| 20260505172515 | 5 | 95 | 9.7 | 12.9 | 0.00 | 15.34 | 8.23 | 57 | 951.5 |
| 20260505171516 | 5 | 79 | 8.0 | 11.3 | 0.00 | 15.34 | 8.23 | 56 | 951.6 |
| 20260505170515 | 5 | 96 | 9.7 | 12.9 | 0.00 | 15.34 | 8.23 | 56 | 951.6 |
| 20260505165515 | 5 | 79 | 9.7 | 12.9 | 0.00 | 15.34 | 8.23 | 56 | 951.6 |
| 20260505164535 | 5 | 77 | 9.7 | 14.5 | 0.00 | 15.34 | 8.23 | 56 | 951.6 |
| 20260505163515 | 5 | 82 | 9.7 | 11.3 | 0.00 | 15.34 | 8.23 | 56 | 951.6 |
| 20260505162515 | 5 | 86 | 11.3 | 16.1 | 0.00 | 15.34 | 8.23 | 56 | 951.6 |
| 20260505161515 | 5 | 59 | 8.0 | 11.3 | 0.00 | 15.34 | 8.23 | 54 | 951.7 |
| 20260505160536 | 5 | 60 | 4.8 | 8.0 | 0.00 | 15.34 | 8.23 | 53 | 951.8 |
| 20260505152515 | 5 | 87 | 9.7 | 16.1 | 0.00 | 15.34 | 8.23 | 56 | 951.9 |
| 20260505151514 | 5 | 70 | 9.7 | 17.7 | 0.00 | 15.34 | 8.23 | 55 | 952.1 |
| 20260505150515 | 6 | 35 | 8.0 | 22.5 | 0.00 | 15.34 | 8.23 | 52 | 952.0 |
| 20260505140515 | 5 | 74 | 11.3 | 19.3 | 0.00 | 15.34 | 8.23 | 55 | 952.1 |